Weather History for KLNS - January, 2010

Change the Weather History Date:

Friday, January 1, 2010

  Actual Average Record
Temperature  
Mean Temperature 32 °F -  
Max Temperature 36 °F 40 °F 64 °F (2005)
Min Temperature 27 °F 23 °F 10 °F (1984)
Degree Days  
Heating Degree Days 34    
Moisture  
Dew Point 29 °F    
Average Humidity 87    
Maximum Humidity 96    
Minimum Humidity 59    
Precipitation  
Precipitation 0.02 in - - ()
Sea Level Pressure  
Sea Level Pressure 29.94 in    
Wind  
Wind Speed 3 mph (West)    
Max Wind Speed 20 mph    
Max Gust Speed 26 mph    
Visibility 3 miles    
Events Fog , Rain    
Averages and records for this station are not official NWS values.
T = Trace of Precipitation, MM = Missing Value Source: NWS Daily Summary

Daily Weather History Graph

Daily Weather History Graph

Search for Another Location

Airport or City:

Trip Planner

Search our weather history database for the weather conditions in past years. The results will help you decide how hot, cold, wet, or windy it might be!

Date:

Astronomy

Jan. 01, 2010 Rise Set
Actual Time 7:27 AM EST 4:50 PM EST
Civil Twilight 6:56 AM EST 5:20 PM EST
Nautical Twilight 6:22 AM EST 5:54 PM EST
Astronomical Twilight 5:50 AM EST 6:27 PM EST
Moon 6:07 PM EST (1/1) 8:11 AM EST (1/1)
Length of Visible Light 10h 23m
Length of Day
9h 22m
Full, 99% of the Moon is Illuminated
Jan 1
Full
Jan 7
Last Quarter
Jan 15
New
Jan 23
First Quarter
Jan 30
Full

Hourly Weather History & Observations

Time (EST) Temp. Windchill Dew Point Humidity Pressure Visibility Wind Dir Wind Speed Gust Speed Precip Events Conditions
12:00 AM 32.0 °F - 30.2 °F 93% 29.99 in 1.8 mi Calm Calm - 0.00 in   Overcast
12:07 AM 32.0 °F - 30.2 °F 93% 29.99 in 2.0 mi Calm Calm - 0.00 in   Overcast
12:14 AM 32.0 °F - 30.2 °F 93% 29.99 in 1.8 mi Calm Calm - 0.00 in   Overcast
12:53 AM 32.0 °F - 30.9 °F 96% 29.99 in 1.5 mi Calm Calm - 0.01 in   Overcast
1:24 AM 32.0 °F - 30.2 °F 93% 29.97 in 1.0 mi Calm Calm - 0.01 in   Overcast
1:45 AM 32.0 °F 28.7 °F 30.2 °F 93% 29.98 in 1.0 mi West 3.5 mph - 0.01 in   Overcast
1:53 AM 32.0 °F 28.7 °F 30.0 °F 92% 30.00 in 1.0 mi WNW 3.5 mph - 0.01 in   Overcast
2:12 AM 32.0 °F - 30.2 °F 93% 29.98 in 1.5 mi Calm Calm - 0.00 in   Overcast
2:53 AM 32.0 °F - 30.9 °F 96% 30.00 in 1.8 mi Calm Calm - 0.00 in   Overcast
3:12 AM 32.0 °F - 30.2 °F 93% 29.98 in 1.5 mi Calm Calm - N/A   Overcast
3:53 AM 32.0 °F - 30.0 °F 92% 29.97 in 1.2 mi Calm Calm - N/A   Overcast
4:53 AM 32.0 °F - 30.9 °F 96% 29.96 in 1.2 mi Calm Calm - N/A   Overcast
5:30 AM 32.0 °F - 30.2 °F 93% 29.95 in 1.2 mi Calm Calm - N/A   Overcast
5:53 AM 32.0 °F 28.7 °F 30.0 °F 92% 29.97 in 1.5 mi West 3.5 mph - N/A   Overcast
6:14 AM 32.0 °F 26.4 °F 30.2 °F 93% 29.96 in 1.8 mi West 5.8 mph - N/A   Overcast
6:21 AM 32.0 °F 26.4 °F 30.2 °F 93% 29.96 in 2.0 mi West 5.8 mph - N/A   Overcast
6:46 AM 32.0 °F 25.6 °F 30.2 °F 93% 29.97 in 2.5 mi West 6.9 mph - N/A   Overcast
6:53 AM 32.0 °F 27.5 °F 30.0 °F 92% 29.97 in 2.5 mi WNW 4.6 mph - N/A   Overcast
7:26 AM 32.0 °F 26.4 °F 30.2 °F 93% 29.95 in 2.5 mi WNW 5.8 mph - N/A   Overcast
7:37 AM 32.0 °F 26.4 °F 30.2 °F 93% 29.95 in 1.5 mi WNW 5.8 mph - N/A   Overcast
7:53 AM 32.0 °F 26.4 °F 30.0 °F 92% 29.96 in 1.8 mi West 5.8 mph - N/A   Overcast
8:53 AM 32.0 °F 27.5 °F 30.0 °F 92% 29.96 in 1.8 mi WSW 4.6 mph - N/A   Mostly Cloudy
9:38 AM 32.0 °F 26.4 °F 30.2 °F 93% 29.96 in 1.2 mi SW 5.8 mph - N/A   Partly Cloudy
9:53 AM 32.0 °F 25.6 °F 30.0 °F 92% 29.97 in 1.2 mi SW 6.9 mph - N/A   Mostly Cloudy
10:18 AM 32.0 °F 26.4 °F 30.2 °F 93% 29.96 in 0.8 mi West 5.8 mph - N/A   Overcast
10:49 AM 32.0 °F 26.4 °F 30.2 °F 93% 29.95 in 0.2 mi West 5.8 mph - N/A Fog Fog
10:53 AM 32.0 °F 26.4 °F 30.0 °F 92% 29.96 in 0.2 mi West 5.8 mph - N/A Fog Fog
11:35 AM 33.8 °F 28.6 °F 30.2 °F 87% 29.92 in 0.5 mi West 5.8 mph - N/A Fog Fog
11:41 AM 33.8 °F 27.7 °F 30.2 °F 87% 29.92 in 0.5 mi West 6.9 mph - N/A Fog Fog
11:53 AM 33.1 °F 27.7 °F 30.9 °F 92% 29.93 in 0.8 mi West 5.8 mph - N/A   Overcast
11:56 AM 33.8 °F 28.6 °F 30.2 °F 87% 29.92 in 1.0 mi West 5.8 mph - N/A   Overcast
12:53 PM 35.1 °F 29.3 °F 32.0 °F 89% 29.91 in 2.0 mi West 6.9 mph - N/A   Overcast
1:48 PM 35.6 °F 30.7 °F 32.0 °F 87% 29.88 in 3.0 mi West 5.8 mph - N/A   Overcast
1:53 PM 36.0 °F 30.3 °F 32.0 °F 86% 29.90 in 3.0 mi West 6.9 mph - N/A   Overcast
2:53 PM 36.0 °F 31.1 °F 33.1 °F 89% 29.90 in 3.0 mi West 5.8 mph - N/A   Overcast
3:53 PM 36.0 °F 32.1 °F 32.0 °F 86% 29.89 in 4.0 mi West 4.6 mph - N/A   Overcast
4:53 PM 35.1 °F 31.0 °F 30.9 °F 85% 29.87 in 7.0 mi West 4.6 mph - N/A   Overcast
5:53 PM 35.1 °F 30.1 °F 28.0 °F 76% 29.89 in 10.0 mi WNW 5.8 mph - N/A   Overcast
6:53 PM 34.0 °F 22.7 °F 24.1 °F 67% 29.89 in 10.0 mi NW 19.6 mph 26.5 mph 0.00 in Rain Light Rain
7:53 PM 32.0 °F 23.0 °F 21.0 °F 64% 29.89 in 10.0 mi WNW 11.5 mph - 0.00 in   Overcast
8:53 PM 30.9 °F 20.7 °F 18.0 °F 59% 29.88 in 10.0 mi WNW 13.8 mph - N/A   Overcast
9:53 PM 28.9 °F 17.3 °F 18.0 °F 64% 29.87 in 10.0 mi WNW 16.1 mph - N/A   Scattered Clouds
10:53 PM 27.0 °F 16.1 °F 18.0 °F 69% 29.87 in 10.0 mi WNW 12.7 mph - N/A   Clear
11:53 PM 27.0 °F 16.1 °F 16.0 °F 63% 29.85 in 10.0 mi WNW 12.7 mph - N/A   Clear